When you browse on this site, cookies collect data to enhance your experience and personalize the content and advertising you see.
Visit our Privacy Policy to learn more. By continuing to use the site, you agree to this use of cookies and data.

Tiempo cada hora Kindia

Hoy, 26 Septiembre, Sábado

Tiempo Temperatura Precipitaciones Viento Presión Humedad
00:00 +24°C° 0.4 mm 1 mps 707 mmHg 89%
01:00 +24°C° 0.4 mm 1 mps 706 mmHg 90%
02:00 +24°C° 0 mm 2 mps 706 mmHg 90%
03:00 +24°C° 0 mm 2 mps 705 mmHg 91%
04:00 +24°C° 0 mm 2 mps 705 mmHg 91%
05:00 +23°C° 0.2 mm 2 mps 705 mmHg 91%
06:00 +22°C° 0.2 mm 3 mps 706 mmHg 92%
07:00 +22°C° 0.2 mm 3 mps 706 mmHg 92%
08:00 +25°C° 0 mm 3 mps 707 mmHg 87%
09:00 +26°C° 0 mm 3 mps 707 mmHg 82%
10:00 +27°C° 0 mm 3 mps 707 mmHg 76%
11:00 +28°C° 0.6 mm 3 mps 707 mmHg 76%
12:00 +28°C° 0.6 mm 3 mps 706 mmHg 75%
13:00 +29°C° 0.6 mm 3 mps 706 mmHg 74%
14:00 +29°C° 0.9 mm 2 mps 705 mmHg 74%
15:00 +29°C° 0.9 mm 2 mps 705 mmHg 74%
16:00 +29°C° 0.9 mm 1 mps 704 mmHg 74%
17:00 +27°C° 0.6 mm 1 mps 704 mmHg 78%
18:00 +26°C° 0.6 mm 2 mps 704 mmHg 83%
19:00 +25°C° 0.6 mm 2 mps 704 mmHg 87%
20:00 +24°C° 0.1 mm 2 mps 705 mmHg 87%
21:00 +24°C° 0.1 mm 2 mps 705 mmHg 87%
22:00 +24°C° 0.1 mm 2 mps 705 mmHg 87%
23:00 +23°C° 0 mm 2 mps 705 mmHg 90%

Mañana, 27 Septiembre, Domingo

Tiempo Temperatura Precipitaciones Viento Presión Humedad
00:00 +23°C° 0 mm 2 mps 705 mmHg 92%
01:00 +23°C° 0 mm 2 mps 704 mmHg 95%
02:00 +23°C° 0 mm 2 mps 704 mmHg 96%
03:00 +21°C° 0 mm 2 mps 704 mmHg 96%
04:00 +21°C° 0 mm 2 mps 704 mmHg 97%
05:00 +21°C° 0 mm 2 mps 704 mmHg 96%
06:00 +21°C° 0 mm 2 mps 705 mmHg 96%
07:00 +21°C° 0 mm 3 mps 706 mmHg 95%
08:00 +24°C° 0 mm 3 mps 706 mmHg 90%
09:00 +25°C° 0 mm 3 mps 706 mmHg 85%
10:00 +26°C° 0 mm 3 mps 707 mmHg 80%
11:00 +27°C° 0.3 mm 3 mps 706 mmHg 76%
12:00 +28°C° 0.3 mm 2 mps 706 mmHg 72%
13:00 +29°C° 0.3 mm 2 mps 706 mmHg 68%
14:00 +29°C° 1.9 mm 2 mps 705 mmHg 72%
15:00 +28°C° 1.9 mm 2 mps 704 mmHg 76%
16:00 +27°C° 1.9 mm 2 mps 703 mmHg 81%
17:00 +26°C° 0.1 mm 1 mps 704 mmHg 83%
18:00 +25°C° 0.1 mm 1 mps 704 mmHg 86%
19:00 +24°C° 0.1 mm 1 mps 704 mmHg 88%
20:00 +24°C° 0 mm 1 mps 705 mmHg 89%
21:00 +24°C° 0 mm 1 mps 705 mmHg 91%
22:00 +23°C° 0 mm 1 mps 706 mmHg 92%
23:00 +23°C° 0 mm 1 mps 706 mmHg 92%

Pasado mañana, 28 Septiembre, Lunes

Tiempo Temperatura Precipitaciones Viento Presión Humedad
00:00 +23°C° 0 mm 1 mps 706 mmHg 91%
01:00 +23°C° 0 mm 1 mps 705 mmHg 91%
02:00 +23°C° 0.1 mm 1 mps 705 mmHg 92%
03:00 +23°C° 0.1 mm 2 mps 705 mmHg 93%
04:00 +21°C° 0.1 mm 2 mps 705 mmHg 94%
05:00 +23°C° 0 mm 2 mps 705 mmHg 94%
06:00 +23°C° 0 mm 2 mps 706 mmHg 94%
07:00 +23°C° 0 mm 2 mps 706 mmHg 94%
08:00 +23°C° 0 mm 2 mps 707 mmHg 92%
09:00 +24°C° 0 mm 3 mps 707 mmHg 91%
10:00 +24°C° 0 mm 3 mps 708 mmHg 89%
11:00 +25°C° 0.4 mm 3 mps 707 mmHg 84%
12:00 +27°C° 0.4 mm 3 mps 707 mmHg 80%
13:00 +28°C° 0.4 mm 3 mps 706 mmHg 75%
14:00 +27°C° 1.1 mm 2 mps 706 mmHg 78%
15:00 +27°C° 1.1 mm 2 mps 705 mmHg 82%
16:00 +26°C° 1.1 mm 1 mps 705 mmHg 85%
17:00 +26°C° 0.2 mm 1 mps 705 mmHg 87%
18:00 +25°C° 0.2 mm 1 mps 705 mmHg 89%
19:00 +22°C° 0.2 mm 0 mps 705 mmHg 91%
20:00 +22°C° 0 mm 0 mps 706 mmHg 91%
21:00 +22°C° 0 mm 0 mps 706 mmHg 91%
22:00 +21°C° 0 mm 0 mps 706 mmHg 91%
23:00 +21°C° 0 mm 0 mps 706 mmHg 91%

29 Septiembre, Martes

Tiempo Temperatura Precipitaciones Viento Presión Humedad
00:00 +23°C° 0 mm 1 mps 706 mmHg 92%
01:00 +23°C° 0 mm 1 mps 706 mmHg 93%
02:00 +23°C° 0 mm 1 mps 706 mmHg 94%
03:00 +21°C° 0 mm 2 mps 706 mmHg 95%
04:00 +21°C° 0 mm 2 mps 705 mmHg 96%
05:00 +23°C° 0 mm 2 mps 706 mmHg 96%
06:00 +23°C° 0 mm 2 mps 706 mmHg 96%
07:00 +23°C° 0 mm 2 mps 706 mmHg 95%
08:00 +24°C° 0 mm 2 mps 707 mmHg 92%
09:00 +25°C° 0 mm 2 mps 707 mmHg 88%
10:00 +26°C° 0 mm 2 mps 708 mmHg 84%
11:00 +26°C° 0 mm 2 mps 707 mmHg 83%
12:00 +27°C° 0 mm 2 mps 707 mmHg 82%
13:00 +27°C° 0 mm 2 mps 706 mmHg 80%
14:00 +28°C° 0.1 mm 2 mps 706 mmHg 77%
15:00 +28°C° 0.1 mm 1 mps 705 mmHg 73%
16:00 +29°C° 0.1 mm 1 mps 705 mmHg 69%
17:00 +27°C° 0 mm 1 mps 705 mmHg 74%
18:00 +26°C° 0 mm 1 mps 705 mmHg 79%
19:00 +25°C° 0 mm 1 mps 705 mmHg 85%
20:00 +24°C° 0 mm 1 mps 706 mmHg 85%
21:00 +22°C° 0 mm 0 mps 706 mmHg 86%
22:00 +22°C° 0 mm 0 mps 706 mmHg 87%
23:00 +24°C° 0.2 mm 1 mps 706 mmHg 87%

30 Septiembre, Miércoles

Tiempo Temperatura Precipitaciones Viento Presión Humedad
00:00 +24°C° 0.2 mm 1 mps 706 mmHg 87%
01:00 +24°C° 0.2 mm 1 mps 706 mmHg 87%
02:00 +24°C° 0.9 mm 1 mps 706 mmHg 89%
03:00 +23°C° 0.9 mm 1 mps 706 mmHg 92%
04:00 +23°C° 0.9 mm 2 mps 705 mmHg 94%
05:00 +23°C° 0.3 mm 2 mps 706 mmHg 95%
06:00 +23°C° 0.3 mm 2 mps 706 mmHg 95%
07:00 +22°C° 0.3 mm 3 mps 706 mmHg 96%
08:00 +24°C° 0 mm 2 mps 707 mmHg 92%
09:00 +25°C° 0 mm 2 mps 707 mmHg 88%
10:00 +25°C° 0 mm 2 mps 708 mmHg 85%
11:00 +26°C° 0.4 mm 2 mps 707 mmHg 81%
12:00 +27°C° 0.4 mm 2 mps 707 mmHg 77%
13:00 +28°C° 0.4 mm 2 mps 706 mmHg 73%
14:00 +28°C° 0.5 mm 2 mps 705 mmHg 75%
15:00 +28°C° 0.5 mm 2 mps 705 mmHg 76%
16:00 +27°C° 0.5 mm 2 mps 704 mmHg 78%
17:00 +26°C° 0 mm 1 mps 705 mmHg 83%
18:00 +25°C° 0 mm 1 mps 705 mmHg 87%
19:00 +24°C° 0 mm 1 mps 705 mmHg 92%
20:00 +23°C° 0 mm 1 mps 705 mmHg 93%
21:00 +23°C° 0 mm 1 mps 705 mmHg 94%
22:00 +23°C° 0 mm 1 mps 706 mmHg 95%
23:00 +22°C° 0 mm 1 mps 706 mmHg 95%

1 Octubre, Jueves

Tiempo Temperatura Precipitaciones Viento Presión Humedad
00:00 +22°C° 0 mm 1 mps 706 mmHg 96%
01:00 +22°C° 0 mm 1 mps 705 mmHg 96%
02:00 +22°C° 0 mm 1 mps 705 mmHg 96%
03:00 +22°C° 0 mm 1 mps 705 mmHg 97%
04:00 +22°C° 0 mm 1 mps 705 mmHg 97%
05:00 +22°C° 0.3 mm 1 mps 705 mmHg 95%
06:00 +22°C° 0.3 mm 1 mps 706 mmHg 94%
07:00 +22°C° 0.3 mm 1 mps 706 mmHg 93%
08:00 +24°C° 0 mm 1 mps 706 mmHg 85%
09:00 +26°C° 0 mm 2 mps 707 mmHg 77%
10:00 +28°C° 0 mm 2 mps 707 mmHg 70%
11:00 +29°C° 0 mm 3 mps 706 mmHg 67%
12:00 +30°C° 0 mm 3 mps 706 mmHg 64%
13:00 +31°C° 0 mm 3 mps 705 mmHg 61%
14:00 +31°C° 0 mm 3 mps 704 mmHg 63%
15:00 +31°C° 0 mm 2 mps 704 mmHg 64%
16:00 +30°C° 0 mm 2 mps 703 mmHg 66%
17:00 +29°C° 0.4 mm 1 mps 703 mmHg 72%
18:00 +27°C° 0.4 mm 1 mps 704 mmHg 79%
19:00 +24°C° 0.4 mm 0 mps 704 mmHg 85%
20:00 +25°C° 1.4 mm 1 mps 705 mmHg 87%
21:00 +25°C° 1.4 mm 1 mps 705 mmHg 89%
22:00 +25°C° 1.4 mm 1 mps 706 mmHg 91%
23:00 +24°C° 0.1 mm 2 mps 705 mmHg 92%
Mostrar más